Location: La Brionne
(46.1728°N, 1.7849°E)
Time: 11:45:03
(UTC+00:00)

USA 267 - Pass Details

Date: 28 October 2021
Orbit: 1101 x 1107 km, 123.0° (Epoch: 25 November)

Event Time Altitude Azimuth Distance (km) Brightness Sun altitude
Exits shadow 20:20:35 17° 215° (SW) 2,492 5.2 -37.5°
Maximum altitude 20:22:37 19° 238° (WSW) 2,354 5.2 -37.8°
Drops below altitude 10° 20:27:01 10° 281° (W) 2,960 6.2 -38.6°
Sets 20:30:24 0° 298° (WNW) 3,922 7.1 -39.1°
